[[{"header":{"parameterUnit":"m.s-1","parameterCategory":1,"la1":30.2991,"la2":30.254,"lo1":-89.0895,"lo2":-89.0444,"dx":0.0017,"dy":0.0017,"nx":28,"ny":28,"refTime":"2022-11-13T15:00:00:Z","depth":0,"parameterNumber":2,"parameterNumberName":"U-component_of_WINDS"},"data":[0,0,0,0,0,0,0,0,0,0,0,0,0,0,0,0,0,0,0,0,0,0,0,0,0,0,0,0,0,0,0,0,0,0,0,0,0,0,0,0,0,0,0,0,0,0,0,0,0,0,0,0,0,0,0,0,0,0,-4.2677,-4.2677,0,-4.2724,-4.2725,-4.2725,-4.2618,-4.2615,-4.2611,-4.2608,-4.2658,-4.2663,-4.2667,0,0,0,0,0,0,0,0,0,0,0,0,0,-4.2495,-4.2499,-4.2677,-4.2677,-4.2678,-4.2724,-4.2725,-4.2725,-4.2619,-4.2615,-4.2611,-4.2607,-4.2657,-4.2662,-4.2667,0,0,0,0,0,0,0,0,0,0,0,0,0,-4.2562,-4.25,-4.2677,-4.263,-4.2627,-4.2724,-4.2725,-4.2726,-4.262,-4.2615,-4.261,-4.2605,-4.2655,-4.2661,-4.2668,-4.2813,0,0,-4.2689,-4.2692,0,0,0,0,0,0,0,0,-4.2558,-4.2568,-4.2637,-4.2634,-4.263,-4.266,-4.2679,-4.2755,-4.2621,-4.2623,-4.2608,-4.2602,-4.2663,-4.2669,-4.2689,-4.2815,-4.2817,-4.269,-4.2694,-4.2697,-4.2698,0,0,0,0,0,0,0,-4.2554,-4.2566,-4.2696,-4.2638,-4.2634,-4.2608,-4.2611,-4.2693,-4.2671,-4.2622,-4.2614,-4.2621,-4.266,-4.2683,-4.2689,-4.2818,-4.2689,-4.2695,-4.27,-4.2702,-4.3067,-4.3072,0,0,0,0,0,0,-4.2555,-4.2563,-4.2694,-4.2697,-4.258,-4.2615,-4.2619,-4.2656,-4.267,-4.2667,-4.2626,-4.2616,-4.2674,-4.2682,-4.2691,-4.2862,-4.2696,-4.2703,-4.2707,-4.3061,-4.3068,-4.3074,0,0,0,0,0,0,-4.2551,-4.2567,-4.2692,-4.2628,-4.2642,-4.2624,-4.2665,-4.2659,-4.2682,-4.2673,-4.2668,-4.2653,-4.267,-4.2681,-4.2784,-4.2862,-4.2706,-4.2712,-4.3055,-4.3063,-4.3071,-4.3206,0,0,0,0,0,0,-4.2546,-4.2567,-4.2621,-4.263,-4.2646,-4.2784,-4.267,-4.2664,-4.2694,-4.2682,-4.2697,-4.2695,-4.2667,-4.2774,-4.279,-4.2869,-4.2717,-4.3047,-4.3058,-4.3068,-4.3194,-4.3218,-4.3238,0,0,0,0,0,-4.254,-4.2658,-4.2625,-4.2641,-4.2713,-4.2789,-4.2798,-4.2763,-4.27,-4.2755,-4.275,-4.2694,-4.2851,-4.2785,-4.2803,-4.2885,-4.3042,-4.3055,-4.3068,-4.3185,-4.3213,-4.3237,0,0,0,0,0,0,-4.2659,-4.2658,-4.2621,-4.2745,-4.2768,-4.2771,-4.2839,-4.2795,-4.2836,-4.2823,-4.2779,-4.2783,-4.2895,-4.2899,-4.2827,-4.3026,-4.2936,-4.2953,-4.3019,-4.3046,-4.3068,-4.3065,-4.2723,0,0,0,0,0,-4.2699,-4.2761,-4.2756,-4.2865,-4.2879,-4.2857,-4.2889,-4.286,-4.2882,-4.2892,-4.2893,-4.2918,-4.2972,-4.3009,-4.3059,-4.3194,-4.3197,-4.3259,-4.3281,-4.3299,-4.3314,-4.3387,-4.3415,-4.3116,-4.3115,-4.3115,0,0,-4.2784,-4.2791,-4.2832,-4.289,-4.2904,-4.2969,-4.2866,-4.2939,-4.2987,-4.2903,-4.3,-4.3002,-4.3026,-4.3146,-4.3199,-4.3153,-4.3397,-4.3315,-4.3329,-4.3335,-4.3403,-4.3431,-4.3457,-4.3124,-4.3123,-4.3121,0,0,-4.2971,-4.2982,-4.3074,-4.3091,-4.3114,-4.3099,-4.3122,-4.3132,-4.313,-4.3226,-4.3165,-4.3221,-4.3316,-4.3336,-4.3359,-4.3554,-4.3505,-4.3572,-4.3686,-4.3758,-4.3781,-4.3802,-4.3873,-4.3899,-4.3587,-4.3587,-4.3587,0,-4.3073,-4.3168,-4.3128,-4.3205,-4.3233,-4.3159,-4.3253,-4.3271,-4.331,-4.3331,-4.328,-4.3398,-4.3409,-4.3533,-4.358,-4.3601,-4.3626,-4.357,-4.3781,-4.3802,-4.382,-4.3887,-4.3914,-4.3595,-4.3594,-4.3593,-4.3593,0,-4.3293,-4.336,-4.3432,-4.3471,-4.3506,-4.3592,-4.3565,-4.3606,-4.3575,-4.3565,-4.3665,-4.3675,-4.3726,-4.3753,-4.3723,-4.3874,-4.3845,-4.3788,-4.3697,-4.3858,-4.392,-4.3945,-4.3607,-4.3604,-4.3601,-4.3599,0,0,-4.3556,-4.3572,-4.36,-4.3617,-4.3637,-4.3689,-4.3771,-4.382,-4.3857,-4.3886,-4.3955,-4.4037,-4.3985,-4.401,-4.3982,-4.4045,-4.42,-4.398,-4.398,-4.4022,-4.4368,-4.4411,-4.4442,-4.4167,-4.4172,-4.4176,-4.4366,0,-4.3742,-4.3884,-4.385,-4.399,-4.4052,-4.3983,-4.4055,-4.4076,-4.407,-4.4121,-4.4114,-4.4174,-4.4099,-4.4115,-4.4174,-4.4169,-4.4269,-4.4154,-4.4232,-4.4235,-4.4229,-4.4474,-4.452,-4.4699,-4.439,-4.4394,-4.4397,0,-4.3978,-4.4016,-4.4163,-4.4174,-4.4198,-4.4264,-4.4307,-4.4357,-4.4379,-4.437,-4.44,-4.4359,-4.4441,-4.4349,-4.4462,-4.4384,-4.4414,-4.4417,-4.4423,-4.4429,-4.4327,-4.4488,-4.4755,-4.4783,-4.4435,-4.4432,-4.4429,0,-4.4157,-4.4245,-4.4344,-4.4361,-4.4376,-4.4424,-4.4432,-4.4449,-4.4482,-4.4519,-4.454,-4.4587,-4.4614,-4.4651,-4.4625,-4.456,-4.4743,-4.4648,-4.4739,-4.474,-4.4781,-4.4779,-4.5058,-4.4799,-4.4798,-4.4798,-4.4797,0,-4.4369,-4.4461,-4.4425,-4.4486,-4.4588,-4.4549,-4.4651,-4.4651,-4.4667,-4.4728,-4.4671,-4.4729,-4.469,-4.4745,-4.4725,-4.4822,-4.4834,-4.483,-4.4824,-4.4836,-4.4837,-4.4855,-4.4842,-4.4805,-4.4803,-4.4802,-4.4801,0,-4.4586,-4.4566,-4.4669,-4.4675,-4.4679,-4.4754,-4.4759,-4.4816,-4.4805,-4.4883,-4.4898,-4.4882,-4.4944,-4.4921,-4.4987,-4.4973,-4.5098,-4.5075,-4.5091,-4.5085,-4.5178,-4.517,-4.5479,-4.5518,-4.5233,-4.5236,-4.5238,0,-4.4723,-4.4793,-4.4806,-4.4843,-4.4855,-4.4915,-4.4947,-4.4911,-4.4948,-4.4979,-4.5033,-4.509,-4.5133,-4.5236,-4.523,-4.5281,-4.5259,-4.5364,-4.5266,-4.5276,-4.5262,-4.5258,-4.5265,-4.5384,-4.5387,-4.539,-4.5392,0,-4.4969,-4.4955,-4.5004,-4.5051,-4.5091,-4.5126,-4.5156,-4.5189,-4.5154,-4.5199,-4.5261,-4.5295,-4.5363,-4.542,-4.5466,-4.5474,-4.5429,-4.5422,-4.5446,-4.546,-4.5466,-4.5465,-4.5145,-4.5416,-4.5413,-4.5411,-4.541,-4.5409,-4.5151,-4.521,-4.5229,-4.5286,-4.5304,-4.5334,-4.5388,-4.5384,-4.5435,-4.5487,-4.5463,-4.5536,-4.5557,-4.5613,-4.5629,-4.5685,-4.5645,-4.5679,-4.5688,-4.5697,-4.571,-4.5457,-4.5693,-4.5693,-4.5692,-4.5691,-4.5691,0,-4.5395,-4.5403,-4.5456,-4.5499,-4.5545,-4.5496,-4.5527,-4.5568,-4.5632,-4.5656,-4.57,-4.5773,-4.5828,-4.5827,-4.5879,-4.5925,-4.5905,-4.594,-4.5936,-4.594,-4.5743,-4.5717,-4.5955,-4.5955,-4.5955,-4.5955,-4.5955,-4.5955,-4.5527,-4.5624,-4.5613,-4.572,-4.5727,-4.5798,-4.582,-4.5847,-4.5865,-4.5949,-4.5995,-4.5993,-4.6007,-4.606,-4.6109,-4.6107,-4.6129,-4.6173,-4.6163,-4.5979,-4.5953,-4.5928,-4.5904,-4.6178,-4.6178,-4.6355,-4.6357,-4.6358]},{"header":{"parameterUnit":"m.s-1","parameterCategory":1,"la1":30.2991,"la2":30.254,"lo1":-89.0895,"lo2":-89.0444,"dx":0.0017,"dy":0.0017,"nx":28,"ny":28,"refTime":"2022-11-13T15:00:00:Z","depth":0,"parameterNumber":3,"parameterNumberName":"V-component_of_WINDS"},"data":[0,0,0,0,0,0,0,0,0,0,0,0,0,0,0,0,0,0,0,0,0,0,0,0,0,0,0,0,0,0,0,0,0,0,0,0,0,0,0,0,0,0,0,0,0,0,0,0,0,0,0,0,0,0,0,0,0,0,-1.5393,-1.5392,0,-1.5322,-1.5321,-1.532,-1.5272,-1.5272,-1.5271,-1.5271,-1.5198,-1.5197,-1.5195,0,0,0,0,0,0,0,0,0,0,0,0,0,-1.5485,-1.5483,-1.5393,-1.5392,-1.5391,-1.5322,-1.5321,-1.532,-1.5272,-1.5272,-1.5271,-1.5271,-1.5199,-1.5197,-1.5195,0,0,0,0,0,0,0,0,0,0,0,0,0,-1.5432,-1.5483,-1.5393,-1.5359,-1.5355,-1.5322,-1.5321,-1.5319,-1.5272,-1.5272,-1.5271,-1.5271,-1.5199,-1.5197,-1.5195,-1.519,0,0,-1.5187,-1.5186,0,0,0,0,0,0,0,0,-1.5435,-1.5429,-1.5365,-1.5361,-1.5357,-1.5305,-1.5326,-1.5276,-1.5272,-1.5304,-1.5271,-1.527,-1.5234,-1.5229,-1.5217,-1.5187,-1.5183,-1.5187,-1.5186,-1.5185,-1.5184,0,0,0,0,0,0,0,-1.5439,-1.5432,-1.5364,-1.5364,-1.5359,-1.5346,-1.5338,-1.5317,-1.5273,-1.5301,-1.5297,-1.5289,-1.5232,-1.5219,-1.5215,-1.5182,-1.5187,-1.5185,-1.5183,-1.5182,-1.5141,-1.5141,0,0,0,0,0,0,-1.5448,-1.5435,-1.5367,-1.5362,-1.5396,-1.5345,-1.5336,-1.5322,-1.5273,-1.5265,-1.529,-1.5287,-1.5224,-1.5218,-1.5212,-1.5201,-1.5185,-1.5182,-1.5181,-1.514,-1.5141,-1.5141,0,0,0,0,0,0,-1.545,-1.5443,-1.537,-1.5398,-1.5387,-1.5344,-1.5329,-1.5321,-1.5308,-1.5264,-1.5256,-1.5285,-1.5223,-1.5215,-1.5195,-1.5198,-1.5181,-1.5179,-1.514,-1.5141,-1.5141,-1.518,0,0,0,0,0,0,-1.5453,-1.5444,-1.5442,-1.5398,-1.5386,-1.5355,-1.5329,-1.532,-1.5304,-1.53,-1.5258,-1.525,-1.5222,-1.5199,-1.5192,-1.5194,-1.5177,-1.514,-1.514,-1.5141,-1.5178,-1.5182,-1.5185,0,0,0,0,0,-1.5457,-1.5457,-1.5442,-1.5434,-1.5383,-1.5355,-1.5348,-1.5316,-1.5305,-1.5302,-1.5273,-1.5252,-1.5198,-1.5197,-1.519,-1.519,-1.5139,-1.514,-1.5141,-1.5177,-1.5181,-1.5185,0,0,0,0,0,0,-1.5503,-1.545,-1.5434,-1.542,-1.5392,-1.5347,-1.5343,-1.5322,-1.5297,-1.5294,-1.5255,-1.5245,-1.5228,-1.5207,-1.5207,-1.5181,-1.5166,-1.5165,-1.5196,-1.52,-1.5203,-1.5208,-1.5175,0,0,0,0,0,-1.5512,-1.5493,-1.5448,-1.544,-1.5427,-1.5387,-1.5374,-1.5351,-1.5321,-1.5309,-1.5279,-1.525,-1.5226,-1.5212,-1.5188,-1.5175,-1.5164,-1.5171,-1.5175,-1.5178,-1.5177,-1.5166,-1.5168,-1.5144,-1.5144,-1.5144,0,0,-1.5529,-1.5498,-1.5489,-1.5448,-1.5424,-1.5405,-1.5378,-1.536,-1.5345,-1.5306,-1.5284,-1.5261,-1.5226,-1.5209,-1.5199,-1.519,-1.5181,-1.5179,-1.5181,-1.5179,-1.5167,-1.5169,-1.5171,-1.5144,-1.5144,-1.5144,0,0,-1.5551,-1.5527,-1.5516,-1.5491,-1.5455,-1.5428,-1.5425,-1.5383,-1.5366,-1.5343,-1.5313,-1.5294,-1.5255,-1.523,-1.5213,-1.5222,-1.52,-1.5215,-1.5232,-1.5222,-1.5224,-1.5225,-1.5226,-1.5228,-1.5215,-1.5216,-1.5216,0,-1.5578,-1.5548,-1.5513,-1.5495,-1.5477,-1.544,-1.5428,-1.5406,-1.5364,-1.5352,-1.5342,-1.529,-1.5265,-1.5239,-1.5241,-1.5229,-1.5223,-1.522,-1.5226,-1.5227,-1.5228,-1.5229,-1.523,-1.5217,-1.5217,-1.5217,-1.5217,0,-1.5581,-1.5561,-1.5556,-1.5515,-1.5496,-1.5482,-1.5443,-1.5428,-1.5406,-1.538,-1.5356,-1.5323,-1.5291,-1.5283,-1.5262,-1.5254,-1.5249,-1.5234,-1.5217,-1.5233,-1.5233,-1.5233,-1.522,-1.522,-1.5219,-1.5218,0,0,-1.5631,-1.5569,-1.5568,-1.5547,-1.5503,-1.5486,-1.5469,-1.5437,-1.5424,-1.5395,-1.5378,-1.5345,-1.5329,-1.5309,-1.5284,-1.5275,-1.5281,-1.526,-1.5258,-1.5264,-1.5268,-1.5279,-1.528,-1.5267,-1.5267,-1.5266,-1.527,0,-1.5645,-1.5612,-1.5579,-1.5557,-1.5537,-1.55,-1.5484,-1.5455,-1.5429,-1.5407,-1.5379,-1.5355,-1.5337,-1.5324,-1.5313,-1.5283,-1.5281,-1.5282,-1.5249,-1.5248,-1.5258,-1.5281,-1.5293,-1.5298,-1.527,-1.527,-1.527,0,-1.5658,-1.5629,-1.5606,-1.556,-1.555,-1.5537,-1.5503,-1.5483,-1.5448,-1.543,-1.5406,-1.538,-1.5358,-1.5344,-1.5312,-1.5313,-1.5297,-1.528,-1.5279,-1.5274,-1.526,-1.5275,-1.5299,-1.53,-1.527,-1.527,-1.527,0,-1.5694,-1.565,-1.563,-1.5614,-1.5561,-1.5552,-1.553,-1.5494,-1.5476,-1.5446,-1.5433,-1.5402,-1.5384,-1.5359,-1.5324,-1.5318,-1.5295,-1.5279,-1.5278,-1.5279,-1.5275,-1.5276,-1.5296,-1.5267,-1.5267,-1.5267,-1.5267,0,-1.5712,-1.5699,-1.5645,-1.5632,-1.5615,-1.5576,-1.556,-1.5534,-1.5502,-1.5483,-1.5449,-1.5432,-1.5387,-1.5363,-1.5335,-1.5312,-1.5305,-1.5288,-1.5281,-1.5291,-1.5292,-1.5279,-1.5278,-1.5267,-1.5267,-1.5267,-1.5267,0,-1.5751,-1.5714,-1.5689,-1.564,-1.5628,-1.5617,-1.5575,-1.5561,-1.5532,-1.5508,-1.55,-1.5456,-1.5426,-1.5388,-1.5347,-1.5328,-1.5307,-1.5296,-1.5319,-1.5314,-1.5315,-1.5315,-1.5327,-1.5326,-1.5299,-1.5299,-1.5299,0,-1.5764,-1.5753,-1.5702,-1.5687,-1.5665,-1.5641,-1.5621,-1.5582,-1.5563,-1.552,-1.551,-1.5478,-1.545,-1.5404,-1.5367,-1.5335,-1.5322,-1.5328,-1.5317,-1.5326,-1.532,-1.5321,-1.5319,-1.5331,-1.5332,-1.5332,-1.5333,0,-1.5792,-1.5773,-1.5747,-1.5714,-1.5691,-1.5663,-1.5634,-1.5623,-1.5576,-1.5556,-1.5525,-1.5504,-1.546,-1.5428,-1.539,-1.5365,-1.5341,-1.5336,-1.5334,-1.5344,-1.5357,-1.5348,-1.5325,-1.5336,-1.5336,-1.5336,-1.5335,-1.5335,-1.5816,-1.5803,-1.5765,-1.5736,-1.571,-1.5682,-1.5665,-1.5634,-1.5608,-1.5569,-1.5547,-1.5516,-1.5478,-1.5425,-1.5401,-1.5376,-1.5367,-1.5364,-1.5363,-1.5363,-1.5365,-1.5361,-1.5369,-1.5369,-1.5368,-1.5368,-1.5368,0,-1.5841,-1.5814,-1.5787,-1.5746,-1.5723,-1.5701,-1.5667,-1.5648,-1.5622,-1.5589,-1.5561,-1.5524,-1.5492,-1.5452,-1.5416,-1.5403,-1.5391,-1.5395,-1.5395,-1.539,-1.5376,-1.5381,-1.5406,-1.5406,-1.5406,-1.5406,-1.5406,-1.5406,-1.585,-1.5826,-1.5803,-1.5765,-1.5738,-1.5707,-1.5689,-1.5663,-1.5636,-1.5596,-1.5569,-1.5543,-1.5506,-1.5468,-1.5436,-1.5425,-1.5413,-1.5421,-1.5406,-1.5394,-1.5391,-1.5388,-1.5392,-1.5419,-1.5419,-1.5422,-1.5422,-1.5422]}]]